This demonstration page uses our WeatherBlox Daily Observations layout. Learn more.

36.17497, -115.13722

Hourly Observations for December 11, 2019

Temp ( °F °C ) Dew Point ( °F °C ) Humidity (%) Winds ( mph kmh ) Pressure ( in mb ) Visibility ( mi km ) Precip ( " mm )
12:53 am 00:53 Clear 42 5.6 33 0.6 71 71 NW 6 9 30.28 1025 10 16.0934 0 0
1:53 am 01:53 Clear 42 5.6 33 0.6 71 71 NNW 5 7 30.27 1025 10 16.0934 0 0
2:53 am 02:53 Clear 42 5.6 33 0.6 71 71 NW 5 7 30.27 1025 10 16.0934 0 0
3:53 am 03:53 Clear 43 6.1 33 0.6 68 68 WNW 5 7 30.26 1025 10 16.0934 0 0
4:53 am 04:53 Clear 43 6.1 34 1.1 71 71 WNW 3 6 30.26 1025 10 16.0934 0 0
5:53 am 05:53 Clear 44 6.7 34 1.1 68 68 Calm 30.27 1025 10 16.0934 0 0
6:53 am 06:53 Sunny 44 6.7 34 1.1 68 68 Calm 30.29 1026 10 16.0934 0 0
7:53 am 07:53 Sunny 45 7.2 34 1.1 66 66 NW 3 6 30.29 1026 10 16.0934 0 0
8:53 am 08:53 Sunny 49 9.4 34 1.1 56 56 Calm 30.31 1026 10 16.0934 0 0
9:53 am 09:53 Sunny 51 10.6 34 1.1 52 52 SE 3 6 30.31 1027 10 16.0934 0 0
10:53 am 10:53 Sunny 55 12.8 33 0.6 44 44 Calm 30.29 1026 10 16.0934 0 0
11:53 am 11:53 Sunny 57 13.9 32 0 39 39 Calm 30.27 1025 10 16.0934 0 0
12:53 pm 12:53 Sunny 58 14.4 31 -0.6 36 36 Calm 30.24 1024 10 16.0934 0 0
1:53 pm 13:53 Sunny 58 14.4 30 -1.1 35 35 ESE 5 7 30.23 1024 10 16.0934 0 0
2:53 pm 14:53 Sunny 58 14.4 30 -1.1 35 35 E 3 6 30.23 1024 10 16.0934 0 0
3:53 pm 15:53 Sunny 57 13.9 31 -0.6 37 37 Calm 30.24 1024 10 16.0934 0 0
4:53 pm 16:53 Clear 55 12.8 32 0 42 42 SE 3 6 30.23 1024 10 16.0934 0 0
5:53 pm 17:53 Clear 54 12.2 32 0 43 43 Calm 30.25 1025 10 16.0934 0 0
6:53 pm 18:53 Clear 50 10 34 1.1 54 54 W 5 7 30.26 1025 10 16.0934 0 0
7:53 pm 19:53 Clear 48 8.9 35 1.7 61 61 N 5 7 30.27 1025 10 16.0934 0 0
8:53 pm 20:53 Clear 47 8.3 35 1.7 63 63 WNW 5 7 30.28 1025 10 16.0934 0 0
9:53 pm 21:53 Clear 47 8.3 35 1.7 63 63 W 5 7 30.28 1025 10 16.0934 0 0
10:53 pm 22:53 Clear 45 7.2 35 1.7 68 68 WNW 5 7 30.28 1025 10 16.0934 0 0
11:53 pm 23:53 Clear 44 6.7 35 1.7 71 71 NW 3 6 30.27 1025 10 16.0934 0 0

Powered by AerisWeather